Printer-friendly version

IAU Minor Planet Center

Minor Planet Center

MPEC 2005-U62 : COMET P/2005 R1 (NEAT)

The following Minor Planet Electronic Circular may be linked-to from your own Web pages, but must not otherwise be redistributed electronically.


Read MPEC 2005-U61 Read MPEC 2005-U63


M.P.E.C. 2005-U62                                Issued 2005 Oct. 26, 22:53 UT

     The Minor Planet Electronic Circulars contain information on unusual
         minor planets and routine data on comets.  They are published
   on behalf of Commission 20 of the International Astronomical Union by the
          Minor Planet Center, Smithsonian Astrophysical Observatory,
                          Cambridge, MA 02138, U.S.A.

                  Supported in part by the Brinson Foundation
                  Supported in part by the TABASGO Foundation
             Prepared using the Tamkin Foundation Computer Network

                              MPC@CFA.HARVARD.EDU
          URL http://cfa-www.harvard.edu/iau/mpc.html  ISSN 1523-6714

                            COMET P/2005 R1 (NEAT)

Observations:
    PK05R010   2005 09 26.60208 00 35 11.58 +32 41 24.3          18.0 T EU062372
    PK05R010  C2005 10 06.86486 00 32 22.01 +31 53 16.4          16.7 N EU062A32
    PK05R010  C2005 10 06.87046 00 32 21.91 +31 53 14.8          16.5 N EU062A32
    PK05R010  C2005 10 06.87608 00 32 21.83 +31 53 12.7          16.5 N EU062A32
    PK05R010  C2005 10 11.19718 00 31 15.37 +31 20 37.6          16.7 T EU062699
    PK05R010  C2005 10 11.22091 00 31 14.87 +31 20 24.1                 EU062699
    PK05R010  C2005 10 11.24467 00 31 14.59 +31 20 13.6                 EU062699
    PK05R010  C2005 10 11.26845 00 31 14.18 +31 20 01.8                 EU062699
    PK05R010  C2005 10 15.11648 00 30 25.32 +30 45 33.1          16.7 T EU062699
    PK05R010  C2005 10 15.13170 00 30 25.09 +30 45 24.8                 EU062699
    PK05R010  C2005 10 15.14778 00 30 24.87 +30 45 16.6                 EU062699
    PK05R010  C2005 10 15.16409 00 30 24.72 +30 45 08.4                 EU062699
    PK05R010  C2005 10 18.88282 00 29 49.15 +30 07 38.0          17.2 N EU062118
    PK05R010  C2005 10 18.88632 00 29 49.09 +30 07 35.8          17.3 N EU062118
    PK05R010  C2005 10 19.91921 00 29 41.86 +29 56 35.1          17.0 N EU062J97
    PK05R010  C2005 10 20.22292 00 29 40.08 +29 53 18.5          17.6 T EU062673
    PK05R010  C2005 10 20.23819 00 29 39.93 +29 53 08.6                 EU062673
    PK05R010  C2005 10 20.26042 00 29 39.73 +29 52 54.1                 EU062673
    PK05R010  C2005 10 20.83750 00 29 36.60 +29 46 33.3          16.7 N EU062213
    PK05R010  C2005 10 20.83865 00 29 36.62 +29 46 32.4          16.7 N EU062213
    PK05R010  C2005 10 20.83980 00 29 36.60 +29 46 32.1          16.7 N EU062213
    PK05R010  C2005 10 21.35191 00 29 33.49 +29 40 52.5          17.5 T EU062673
    PK05R010  C2005 10 21.35891 00 29 33.43 +29 40 47.8                 EU062673
    PK05R010  C2005 10 21.36586 00 29 33.38 +29 40 43.1                 EU062673
    PK05R010  C2005 10 21.37303 00 29 33.32 +29 40 38.2                 EU062673
    PK05R010  C2005 10 21.81866 00 29 31.95 +29 35 37.9          16.5 N EU062213
    PK05R010  C2005 10 21.81982 00 29 31.94 +29 35 37.7          16.5 N EU062213
    PK05R010  C2005 10 21.82326 00 29 31.92 +29 35 35.5          16.6 N EU062213
    PK05R010  C2005 10 22.00402 00 29 30.63 +29 33 32.9                 EU062232
    PK05R010  C2005 10 22.00766 00 29 30.61 +29 33 30.5                 EU062232
    PK05R010  C2005 10 22.01130 00 29 30.60 +29 33 27.7                 EU062232
    PK05R010  C2005 10 24.87596 00 29 24.76 +29 00 25.2          16.7 N EU062J97
    PK05R010  C2005 10 25.18101 00 29 24.72 +28 56 47.5          16.6 T EU062703
    PK05R010  C2005 10 25.18964 00 29 24.72 +28 56 42.0          16.5 T EU062703
    PK05R010  C2005 10 25.19829 00 29 24.64 +28 56 35.5          16.5 T EU062703
    PK05R010  C2005 10 25.20690 00 29 24.64 +28 56 30.0          16.4 T EU062703

Observer details:
118 Modra.  Observer S. Gajdos.  0.6-m f/5.5 reflector + CCD.
213 Observatorio Montcabre.  Observer R. Naves.  Measurer M. Campas.  0.30-m
    f/10 Schmidt-Cassegrain + CCD.
232 Masquefa Observatory.  Observer E. Reina.  0.25-m f/3.3 Schmidt-Cassegrain
    + CCD.
372 Geisei.  Observer T. Seki.  0.60-m f/3.5 reflector.
673 Table Mountain Observatory, Wrightwood.  Observer D. Mayes.  0.6-m
    reflector + CCD.
699 Lowell Observatory-LONEOS.  Observers B. A. Skiff, M. E. Van Ness.  0.59-m
    LONEOS Schmidt + CCD.
703 Catalina Sky Survey.  Observer R. Hill.  Measurers E. C. Beshore,
    E. J. Christensen, G. J. Garradd, A. D. Grauer, R. E. Hill, R. A. Kowalski,
    S. M. Larson, R. H. McNaught.  0.68-m Schmidt + CCD.
A32 Panker.  Observer H. Denzau.  0.36-m f/5.5 Schmidt-Cassegrain + CCD.
J97 Alginet.  Observer T. Climent.  0.25-m f/3.3 Schmidt-Cassegrain + CCD.

Orbital elements:
    P/2005 R1 (NEAT)
T 2005 Oct. 8.3117 TT                                   MPC
q   2.047018             (2000.0)            P               Q
n   0.0763423      Peri.  117.8971      +0.9253030      -0.2754637
a   5.503334       Node   259.0774      +0.1800471      +0.9239979
e   0.628040       Incl.   15.3937      +0.3337624      +0.2652313
P  12.9
From 202 observations 2005 Sept. 2-Oct. 24.

Brian G. Marsden             (C) Copyright 2005 MPC           M.P.E.C. 2005-U62

Read MPEC 2005-U61 Read MPEC 2005-U63


Our Web policy. Index to the CBAT/MPC/ICQ pages.


Valid HTML 4.01!